{"data":{"norad_id":67304,"epoch":"2026-05-25T02:39:00.288000Z","epoch_age_seconds":72312,"freshness":"FRESH","line1":"1 67304U 26001A   26145.11042000  .00000231  00000+0  35518-4 0  9996","line2":"2 67304  97.8885 329.0468 0001303  90.4872 269.6490 14.82149995 21041","mean_motion":14.82149995,"eccentricity":0.0001303,"inclination_deg":97.8885,"raan_deg":329.0468,"arg_perigee_deg":90.4872,"mean_anomaly_deg":269.649,"bstar":3.5518e-5,"rev_number":2104,"period_min":97.156158611329,"perigee_km":621.63366142327,"apogee_km":623.45803937409,"semimajor_km":7000.6828503987,"source":"CELESTRAK","updated_at":"2026-05-25T13:38:12.870008Z"}}